Weather History for Klamath Falls, OR

Change the Weather History Date:

Tuesday, May 1, 2012

  Actual Average Record
Temperature  
Mean Temperature 6 °C 8 °C  
Max Temperature 15 °C 16 °C 28 °C (2014)
Min Temperature -3 °C 1 °C -8 °C (2008)
Degree Days  
Heating Degree Days 22 18  
Month to date heating degree days 22 18  
Since 1 July heating degree days 6165 6337  
Cooling Degree Days 0 0  
Month to date cooling degree days 0 0  
Year to date cooling degree days 0 0  
Moisture  
Dew Point -3 °C    
Average Humidity 57    
Maximum Humidity 85    
Minimum Humidity 23    
Precipitation  
Precipitation 0.00 mm 1.78 mm 1.12 mm (1977)
Month to date precipitation 0.00 0.07  
Year to date precipitation 4.53 6.48  
Sea Level Pressure  
Sea Level Pressure 1013 hPa    
Wind  
Wind Speed 13 km/h (WNW)    
Max Wind Speed 40 km/h    
Max Gust Speed 48 km/h    
Visibility 16 kilometers    
Events      
T = Trace of Precipitation, MM = Missing Value Source: NWS Daily Summary

Daily Weather History Graph

Daily Weather History Graph

Search for Another Location

Airport:

Trip Planner

Search our weather history database for the weather conditions in past years. The results will help you decide how hot, cold, wet, or windy it might be!

Date:

Astronomy

May. 01, 2012 Rise Set
Actual Time 6:01 AM PDT 8:06 PM PDT
Civil Twilight 5:31 AM PDT 8:37 PM PDT
Nautical Twilight 4:53 AM PDT 9:15 PM PDT
Astronomical Twilight 4:12 AM PDT 9:56 PM PDT
Moon 3:11 PM PDT (5/1) 3:07 AM PDT (5/1)
Length of Visible Light 15h 06m
Length of Day
14h 04m
Waxing Gibbous, 75% of the Moon is Illuminated
May 1
Waxing Gibbous
May 5
Full
May 12
Last Quarter
May 20
New
May 28
First Quarter

Hourly Weather History & Observations

Time (PDT) Temp. Windchill Dew Point Humidity Pressure Visibility Wind Dir Wind Speed Gust Speed Precip Events Conditions
12:53 AM 3.9 °C 0.2 °C -1.1 °C 70% 1013.7 hPa 16.1 km West 16.7 km/h / 4.6 m/s - N/A   Clear
1:53 AM 1.7 °C -2.3 °C -1.1 °C 82% 1014.1 hPa 16.1 km West 14.8 km/h / 4.1 m/s - N/A   Clear
2:53 AM 1.7 °C -1.5 °C -2.8 °C 72% 1014.1 hPa 16.1 km West 11.1 km/h / 3.1 m/s - N/A   Clear
3:53 AM 0.0 °C -2.5 °C -3.0 °C 80% 1015.1 hPa 16.1 km WSW 7.4 km/h / 2.1 m/s - N/A   Clear
4:53 AM -2.2 °C - -3.9 °C 88% 1014.9 hPa 16.1 km Calm Calm - N/A   Clear
5:53 AM -2.0 °C - -4.0 °C 86% 1015.1 hPa 16.1 km Calm Calm - N/A   Clear
6:00 AM -3.0 °C -5.2 °C -4.0 °C 93% 1015.1 hPa 16.1 km East 5.6 km/h / 1.5 m/s - N/A   Clear
6:53 AM -1.7 °C - -3.9 °C 85% 1014.7 hPa 16.1 km Calm Calm - N/A   Clear
7:53 AM 2.8 °C - -1.7 °C 73% 1014.4 hPa 16.1 km Calm Calm - N/A   Clear
8:53 AM 5.0 °C - -1.7 °C 62% 1014.0 hPa 16.1 km Calm Calm - N/A   Partly Cloudy
9:53 AM 6.1 °C - -2.2 °C 56% 1013.5 hPa 16.1 km Calm Calm - N/A   Partly Cloudy
10:53 AM 8.9 °C - -2.8 °C 44% 1012.5 hPa 16.1 km Variable 7.4 km/h / 2.1 m/s - N/A   Scattered Clouds
11:53 AM 10.6 °C - -2.2 °C 41% 1011.6 hPa 16.1 km Variable 7.4 km/h / 2.1 m/s - N/A   Partly Cloudy
12:53 PM 12.2 °C - -2.8 °C 35% 1010.8 hPa 16.1 km West 13.0 km/h / 3.6 m/s - N/A   Partly Cloudy
1:53 PM 13.3 °C - -6.1 °C 26% 1010.1 hPa 16.1 km West 18.5 km/h / 5.1 m/s - N/A   Partly Cloudy
2:53 PM 15.0 °C - -6.1 °C 23% 1009.7 hPa 16.1 km West 29.6 km/h / 8.2 m/s 42.6 km/h / 11.8 m/s N/A   Partly Cloudy
3:53 PM 15.0 °C - -5.0 °C 25% 1009.7 hPa 16.1 km WNW 37.0 km/h / 10.3 m/s 48.2 km/h / 13.4 m/s N/A   Partly Cloudy
4:53 PM 13.3 °C - -2.8 °C 33% 1010.5 hPa 16.1 km WNW 35.2 km/h / 9.8 m/s 44.4 km/h / 12.3 m/s N/A   Partly Cloudy
5:53 PM 12.2 °C - -5.0 °C 30% 1011.1 hPa 16.1 km WNW 29.6 km/h / 8.2 m/s 42.6 km/h / 11.8 m/s N/A   Partly Cloudy
6:53 PM 10.0 °C - -4.4 °C 36% 1011.5 hPa 16.1 km WNW 22.2 km/h / 6.2 m/s 33.3 km/h / 9.3 m/s N/A   Partly Cloudy
7:53 PM 7.8 °C 4.8 °C -2.8 °C 47% 1011.8 hPa 16.1 km WNW 18.5 km/h / 5.1 m/s - N/A   Partly Cloudy
8:53 PM 6.7 °C 2.5 °C -3.3 °C 49% 1011.9 hPa 16.1 km WNW 27.8 km/h / 7.7 m/s - N/A   Partly Cloudy
9:53 PM 5.0 °C 2.1 °C -2.8 °C 57% 1012.4 hPa 11.3 km West 13.0 km/h / 3.6 m/s - N/A   Partly Cloudy
10:53 PM 3.3 °C 0.0 °C -2.2 °C 68% 1013.1 hPa 11.3 km WNW 13.0 km/h / 3.6 m/s - N/A   Partly Cloudy
11:53 PM 1.7 °C -1.1 °C -2.8 °C 72% 1012.9 hPa 16.1 km WNW 9.3 km/h / 2.6 m/s - N/A   Clear